EHI
6 7 7 7 6 5 4 3 2 1 1 3 3 2 1 0 0 0 0 0 0 0 0 1 1 1 0 0 0 1 2 2 2 3 3 1 0 0 0 0 0 0 0
6 8 8 7 6 5 4 3 3 2 2 3 3 2 1 1 0 0 0 0 0 0 0 0 0 0 0 0 0 1 2 2 3 3 3 2 1 0 0 0 0 1 1
6 7 8 7 6 6 4 3 3 2 2 3 3 2 2 1 1 1 1 0 0 0 0 0 0 0 0 0 0 1 2 3 4 3 2 1 1 0 1 1 1 2 2
4 5 7 7 6 6 4 3 2 1 2 3 3 3 3 2 2 2 1 1 1 1 0 0 0 0 0 0 0 0 1 3 4 3 1 0 0 1 2 2 2 3 3
2 4 7 8 7 6 5 3 1 0 2 4 4 3 4 4 3 3 2 1 2 1 0 0 0 1 1 0 0 0 1 2 3 2 1 0 0 1 2 3 3 3 3
2 5 8 8 8 7 5 2 0 1 3 6 5 4 5 5 4 3 2 3 3 2 1 0 1 2 2 1 1 1 2 2 2 1 1 0 0 1 1 2 3 3 3
3 5 7 8 7 6 4 2 1 2 4 6 5 4 4 5 4 2 2 3 4 3 2 1 1 3 3 3 2 3 3 3 2 1 1 0 0 0 0 1 3 3 3
4 4 6 6 6 5 3 2 2 3 4 5 6 5 4 4 3 2 3 4 5 4 3 2 3 3 3 3 3 3 3 3 2 1 1 1 1 2 1 1 2 3 3
3 3 4 4 5 4 3 2 2 3 4 4 5 6 5 4 3 3 5 7 6 4 3 3 3 3 3 3 3 3 3 4 3 2 1 1 3 4 2 1 3 3 4
3 3 3 3 4 3 3 1 1 2 3 3 4 5 5 4 3 3 5 7 6 4 3 3 3 3 3 3 3 4 4 5 4 3 2 2 4 5 3 3 4 4 5
3 3 3 3 3 3 2 1 0 1 1 2 3 4 4 3 2 1 3 4 4 3 3 3 3 3 3 3 4 5 4 4 4 3 2 2 4 6 6 6 6 5 5
3 3 3 3 3 3 1 1 1 1 1 1 3 4 4 2 1 1 3 5 5 4 4 3 3 3 3 4 4 4 3 2 2 3 2 3 5 7 7 7 6 5 4
3 3 3 3 3 3 2 2 3 3 3 3 4 5 4 3 2 3 5 7 7 6 5 4 4 3 3 3 3 2 1 1 2 3 4 5 7 8 7 6 5 4 4
3 3 3 3 3 4 3 3 4 4 5 5 5 6 5 5 5 5 6 8 10 10 7 5 4 4 3 2 1 0 0 1 2 5 8 7 7 7 6 4 3 3 3
2 3 3 3 4 5 5 4 4 4 5 5 5 6 6 6 6 6 8 9 11 11 10 7 5 3 3 2 0 0 1 2 3 7 10 9 6 5 6 5 4 4 4
3 3 3 3 4 6 7 5 4 4 4 4 4 5 6 6 5 6 9 10 10 10 10 8 6 4 4 2 1 1 2 3 4 6 6 5 4 4 5 6 6 6 6
3 3 3 3 4 7 8 7 4 3 4 4 4 4 4 4 5 6 7 8 8 8 9 8 7 6 5 4 4 3 4 4 4 3 2 1 1 1 3 4 5 5 5
4 4 4 4 4 6 8 7 4 3 3 4 3 3 3 4 5 7 7 6 6 7 7 7 8 7 6 6 7 6 6 5 3 1 0 0 0 0 1 2 3 3 2
6 5 5 5 5 6 8 8 7 5 3 3 3 2 2 4 6 8 8 7 6 6 5 6 8 8 8 8 8 8 7 6 3 1 0 0 0 0 1 2 4 3 3
7 7 7 8 8 8 10 10 8 6 5 4 4 2 2 3 5 7 7 7 6 5 6 6 7 9 9 8 8 7 6 3 1 0 0 0 0 0 1 3 5 6 6
8 9 10 10 11 11 12 11 9 6 5 5 4 3 2 2 3 5 6 6 6 5 5 6 7 7 8 8 7 5 3 2 1 0 0 0 0 0 1 4 6 7 8
9 10 11 12 13 13 12 11 9 6 4 3 2 2 2 1 2 4 5 6 6 5 5 6 7 7 7 7 6 4 2 2 2 0 0 0 0 0 1 3 5 8 9
10 8 9 11 13 13 12 10 9 7 4 2 1 1 1 1 1 2 4 5 6 5 5 5 7 7 6 5 5 3 2 1 1 2 2 1 0 0 0 1 2 5 6
10 7 7 11 14 14 12 11 10 8 5 3 2 1 0 0 1 1 2 5 6 5 5 5 6 7 6 4 3 3 1 1 2 2 3 3 1 0 0 0 0 1 2
11 9 10 13 15 16 15 13 13 11 8 6 4 2 1 1 1 1 3 6 7 7 7 7 7 8 7 4 3 2 3 4 3 2 2 2 2 1 0 0 0 0 0
13 14 14 15 15 17 18 16 15 14 12 9 6 3 2 2 3 3 4 7 10 9 9 9 8 9 9 6 3 3 6 6 4 2 1 2 3 2 1 1 1 0 0
Wind_Speed
3 5 8 6 7 8 8 8 8 9 9 9 9 10 10 11 10 10 10 10 9 9 10 10 9 9 10 10 9 9 9 8 8 8 8 8 8 8 8 9 9 8 10
4 6 8 6 6 7 7 7 7 8 9 9 9 10 10 10 10 10 10 10 9 9 9 9 9 9 9 9 9 9 9 8 8 8 8 8 8 7 8 7 4 6 10
5 6 8 8 8 8 8 8 7 7 8 8 9 9 10 10 9 9 10 10 9 9 9 9 9 9 9 9 8 8 8 8 8 8 8 7 8 8 8 7 7 8 9
6 6 8 9 8 8 8 7 7 7 8 8 8 9 9 9 9 9 10 10 9 9 9 9 8 8 8 8 7 7 7 7 7 8 7 5 7 9 8 8 7 7 8
6 7 10 8 8 8 7 7 7 7 7 8 8 8 8 9 9 10 10 10 9 9 9 8 8 8 7 7 6 6 6 6 7 8 4 4 5 9 8 8 8 8 8
6 7 10 8 8 8 7 6 6 6 7 7 7 8 8 8 8 9 9 10 9 9 8 8 8 7 6 6 6 6 6 6 8 5 4 4 5 9 8 8 8 8 8
6 6 9 9 8 7 6 6 6 6 6 7 7 7 7 8 8 8 9 9 9 8 8 7 7 6 6 6 6 6 5 6 6 4 4 4 5 8 8 8 8 8 8
6 7 9 11 8 7 6 6 6 6 6 6 7 7 7 7 7 7 8 8 8 7 7 7 6 6 5 5 5 5 5 6 6 4 4 4 6 8 8 8 8 8 8
5 6 6 7 8 8 7 6 6 5 5 6 6 6 7 7 7 7 7 7 7 7 6 6 6 5 5 5 4 4 5 7 6 3 4 4 8 9 9 9 9 9 8
5 4 5 5 5 5 7 8 6 5 5 5 6 7 7 8 8 8 7 7 7 6 6 6 5 5 5 5 5 5 6 8 7 5 4 5 9 8 8 8 8 9 8
4 3 3 4 4 3 4 7 6 7 6 6 7 8 8 6 7 7 7 7 7 6 6 6 5 5 5 7 7 6 7 4 4 3 3 7 8 8 7 8 9 9 8
4 4 2 3 3 2 3 3 2 3 4 4 3 4 4 4 3 4 7 7 7 6 6 6 5 6 6 5 7 8 4 3 3 2 4 10 8 7 7 7 8 8 8
4 3 3 3 2 1 2 2 1 1 3 3 4 3 3 3 4 4 3 5 6 6 4 6 7 3 2 1 2 2 2 2 1 1 5 9 7 7 7 7 7 8 8
3 3 3 3 2 1 1 1 1 2 2 2 3 3 3 2 2 2 2 2 3 2 2 2 2 2 1 2 2 2 2 1 0 0 4 8 6 6 6 6 7 7 7
3 3 2 2 2 1 1 0 1 2 2 3 2 2 2 2 2 2 1 1 1 1 2 2 2 2 2 2 2 1 1 1 1 1 3 7 5 5 5 6 6 7 7
4 3 3 3 2 2 1 0 0 1 1 1 2 2 1 1 1 1 2 2 1 1 1 1 2 2 2 1 1 1 1 1 0 1 1 5 7 5 4 5 5 5 5
4 4 4 4 3 3 2 1 1 1 1 1 1 2 2 1 1 1 1 2 1 1 2 2 2 1 2 2 1 0 0 0 0 0 0 0 3 6 6 5 5 5 5
4 4 4 3 4 3 2 1 1 0 1 1 1 2 2 2 2 2 1 1 1 1 2 2 1 1 1 1 1 0 0 0 0 1 1 1 0 1 5 6 5 4 5
5 5 4 3 3 3 3 2 1 1 0 1 1 1 2 2 2 2 1 1 1 1 1 1 2 1 1 1 1 1 1 0 0 0 0 0 0 1 1 5 5 5 5
6 5 5 5 4 3 3 2 1 1 1 1 0 1 0 1 2 2 2 2 2 2 1 1 2 1 1 1 1 1 0 0 0 0 1 0 1 1 1 1 2 4 6
7 6 6 5 5 4 3 2 2 2 1 1 1 1 1 1 1 2 2 2 2 2 2 2 2 3 2 2 2 1 1 1 0 1 0 0 1 1 1 0 1 1 2
8 7 7 7 6 5 3 2 1 1 1 1 0 1 1 1 2 2 2 2 2 2 2 2 2 2 1 2 2 2 2 2 2 1 1 1 0 0 0 0 0 1 1
8 8 6 6 6 5 4 3 2 2 2 2 1 1 1 1 1 1 1 1 1 2 2 2 2 3 2 2 1 2 2 0 0 2 1 1 0 1 1 1 1 1 2
8 7 7 6 6 5 5 4 3 2 2 1 1 1 1 1 1 1 1 1 1 1 1 2 2 2 3 2 2 1 1 2 2 1 1 1 1 1 1 2 1 0 1
7 7 7 7 6 6 5 5 4 3 2 1 1 1 1 1 1 1 1 2 2 1 1 1 1 2 2 2 1 1 2 1 3 2 1 1 2 1 1 2 1 1 1
6 7 7 7 7 6 6 5 5 3 3 2 2 2 2 2 2 2 2 2 2 2 2 2 2 2 2 2 2 2 2 1 2 2 3 3 2 1 1 1 2 1 2
Wind_Direction
103 111 115 122 119 126 135 137 139 141 142 145 147 147 146 144 142 142 142 140 139 141 142 141 141 142 142 143 143 141 139 141 144 144 145 148 150 152 151 156 168 150 135
109 114 120 127 125 126 130 132 137 140 141 144 147 150 149 147 146 147 146 146 145 146 144 141 141 141 143 143 144 144 145 147 149 154 159 159 158 160 159 166 179 130 143
105 116 124 118 123 123 121 122 129 134 138 142 145 151 153 152 151 151 151 151 152 152 149 146 143 141 143 146 148 150 152 152 159 170 187 177 156 161 164 165 156 147 152
112 118 110 111 119 121 120 121 125 131 138 144 148 152 154 156 159 157 153 152 155 154 151 148 146 145 145 148 151 155 157 158 168 189 196 173 160 153 166 167 166 164 162
117 119 112 119 120 121 120 121 126 132 137 141 146 148 152 157 161 157 155 153 155 155 153 152 149 147 146 148 151 154 160 168 182 206 181 170 159 149 165 169 171 171 167
119 119 117 128 125 123 124 125 126 133 137 139 142 144 147 150 154 158 157 155 156 157 156 156 153 155 154 151 151 155 165 180 198 192 170 178 162 152 168 175 174 173 170
114 117 123 129 128 128 128 127 128 132 135 137 140 142 144 147 150 151 153 154 154 154 155 157 158 160 162 161 160 162 174 195 216 186 174 181 150 150 172 181 181 178 175
102 102 116 131 131 134 132 130 133 135 138 141 143 144 143 143 146 148 151 151 150 153 156 156 156 158 165 167 171 176 191 220 213 193 181 171 139 158 177 184 186 183 182
98 100 110 128 139 145 139 134 133 136 137 142 146 148 149 149 150 152 150 150 153 154 157 156 158 163 169 175 181 186 203 229 240 206 192 165 148 169 184 192 191 187 185
97 97 108 121 125 139 138 136 140 140 140 143 146 151 156 160 161 160 159 157 159 161 163 164 166 171 174 181 189 198 215 232 230 210 198 145 145 166 180 189 189 186 185
110 105 102 117 124 132 129 137 152 157 153 158 154 161 175 174 166 165 157 154 166 172 173 172 176 184 193 188 196 209 225 230 228 227 194 129 152 171 183 186 188 190 191
123 118 114 107 100 112 114 126 150 155 147 157 139 158 169 157 160 160 148 165 174 178 182 183 192 202 219 195 185 201 222 228 235 208 143 138 158 176 186 186 189 192 195
131 122 114 104 99 88 108 121 126 139 135 143 138 155 160 162 161 166 159 169 177 182 190 182 199 202 208 204 194 200 225 247 237 188 125 137 158 176 187 190 195 197 202
134 126 120 119 118 89 56 100 132 129 128 125 134 164 161 161 160 152 167 163 167 168 178 195 182 163 192 201 195 212 221 243 260 139 115 133 159 178 191 196 196 201 208
144 138 134 125 114 110 100 320 96 109 113 121 129 143 164 166 158 163 150 170 179 165 176 186 173 174 190 189 193 201 235 262 238 199 132 135 156 174 189 194 196 206 211
159 153 148 152 144 135 137 174 27 112 126 134 136 133 161 161 137 164 167 170 178 176 177 204 183 186 193 158 173 199 230 219 160 203 169 143 153 168 180 190 199 202 206
162 161 160 164 159 156 173 195 173 149 136 119 119 133 158 170 156 189 179 176 173 167 172 186 179 177 177 162 146 112 240 291 77 151 237 212 157 163 174 189 200 205 204
167 158 164 162 159 165 174 211 190 120 115 122 139 142 155 169 187 206 184 169 163 186 182 169 185 153 137 170 161 186 157 112 255 229 195 176 204 169 167 178 194 199 206
171 167 169 164 166 165 170 179 179 146 108 135 137 144 146 175 190 198 188 149 198 197 188 195 140 180 169 191 187 177 212 180 266 277 64 24 220 242 206 157 175 192 205
171 176 176 172 175 178 172 171 185 175 163 147 112 86 173 185 194 218 185 179 204 192 185 187 173 188 208 213 228 150 238 229 258 1 279 182 197 248 253 211 188 184 187
176 180 184 182 176 189 184 185 177 172 176 173 161 138 209 231 200 226 225 180 204 190 202 197 197 186 206 203 211 200 185 192 164 181 253 332 35 14 16 276 257 259 180
185 187 187 188 181 189 180 187 190 205 196 171 152 135 251 242 238 212 223 225 200 196 199 207 212 229 212 208 248 239 210 176 183 162 166 185 349 333 344 304 290 278 282
189 191 191 188 183 185 183 184 176 187 212 191 182 178 232 249 241 274 229 235 226 228 200 210 220 230 231 212 242 278 279 270 185 150 178 168 301 313 296 305 253 265 268
192 187 187 184 186 184 190 193 200 208 217 218 237 174 172 180 241 232 222 210 233 238 213 221 198 242 242 228 184 212 284 322 289 225 185 173 203 244 294 291 288 220 250
190 183 180 180 186 189 196 196 214 220 219 215 199 165 225 183 221 232 213 211 213 228 229 265 234 251 248 259 247 201 195 217 253 264 267 247 228 225 243 258 269 255 234
185 181 176 176 187 189 194 201 213 218 223 225 214 205 212 192 196 202 205 217 220 223 203 216 231 222 246 266 276 272 250 246 248 251 264 266 269 249 234 242 258 253 229